Theta_e
349 347 347 345 345 343 345 348 355 353 354 357 355 353 354 356 356 355 355 353 352 352 353 352 352 353 353 352 352 352 353 353 352 350 350 354 358 356 354 354 354 351 350
350 349 347 345 340 342 343 342 350 354 354 355 356 358 358 356 356 354 355 355 354 353 354 351 352 353 352 354 352 353 353 353 352 353 351 353 356 354 356 356 355 351 349
352 351 349 348 347 347 347 342 350 352 354 356 357 358 358 358 357 357 357 356 355 352 354 352 351 353 353 353 353 352 354 353 353 352 350 351 353 355 356 354 355 353 351
354 353 352 351 348 349 349 351 352 350 355 358 355 354 356 359 356 356 355 355 355 354 354 354 353 353 353 353 353 355 350 347 350 351 351 350 347 351 354 349 349 355 351
357 357 356 355 354 351 350 350 351 355 353 353 352 347 349 358 355 356 355 354 355 354 354 353 354 353 353 354 352 353 353 347 350 349 349 348 349 349 350 348 344 343 342
350 351 355 356 356 356 355 356 356 356 355 355 350 348 351 354 353 352 354 354 353 354 355 353 354 353 353 352 351 350 351 354 353 351 352 350 351 350 345 345 343 341 340
343 343 344 345 345 345 346 348 353 356 355 354 355 355 353 353 352 352 349 350 353 353 354 355 355 353 352 354 353 349 348 349 351 354 355 355 355 352 351 348 343 342 341
341 340 339 339 339 340 342 345 346 347 349 351 352 352 352 354 353 352 349 349 350 350 350 352 352 352 353 352 354 355 352 350 349 350 353 354 353 354 350 346 343 342 339
340 339 339 339 339 339 339 339 342 344 345 345 345 347 347 348 349 348 346 346 343 345 348 346 349 351 352 351 353 354 353 350 353 354 353 352 353 350 343 339 334 333 335
338 337 338 339 339 340 340 341 341 341 340 340 340 341 343 345 345 344 343 341 341 344 345 346 348 350 351 348 349 351 352 351 351 351 351 351 351 348 342 331 332 333 335
337 335 337 338 340 340 340 340 342 343 342 343 342 342 343 342 344 344 344 340 336 336 336 335 337 345 349 348 348 346 348 352 348 352 350 349 347 345 341 339 338 337 339
339 338 338 339 339 337 339 340 340 341 343 343 344 343 339 338 341 344 344 338 335 334 335 337 340 340 346 349 347 345 346 346 347 348 349 350 348 342 338 340 342 342 340
337 337 337 337 337 339 339 340 339 338 339 338 335 333 332 332 332 340 342 340 339 334 334 336 339 338 340 346 350 348 346 347 347 348 346 347 345 340 340 341 342 342 341
335 334 333 333 334 335 333 333 334 333 334 333 333 331 330 329 331 333 341 339 340 339 337 335 337 336 343 343 342 344 345 347 347 346 346 345 342 338 340 339 340 342 342
333 332 332 330 331 330 331 331 332 333 332 332 331 329 329 329 329 335 334 339 337 335 338 340 338 340 340 341 340 340 342 344 344 344 343 342 339 338 338 339 338 341 340
332 330 329 330 330 329 329 329 329 330 330 329 328 328 329 330 329 328 328 329 331 331 336 337 338 338 338 340 339 338 340 340 340 340 339 338 338 338 338 338 337 338 339
329 329 330 329 330 330 330 331 332 331 330 328 328 328 329 329 330 331 331 330 332 332 331 336 338 339 336 338 338 337 338 339 338 336 337 337 337 338 337 337 336 337 339
329 329 329 329 329 330 331 331 331 331 331 331 330 331 329 331 331 332 333 332 328 328 329 333 339 341 338 337 340 340 338 338 336 336 335 337 336 337 336 335 336 336 335
330 328 328 328 328 328 329 330 330 331 331 332 332 332 332 331 332 332 331 327 331 331 332 334 337 341 340 340 340 341 340 337 336 335 333 334 336 335 332 332 331 329 328
326 324 325 326 327 329 329 329 329 331 332 333 333 333 332 329 330 331 331 329 330 331 332 334 338 340 341 340 341 342 340 336 334 333 332 333 334 331 330 329 327 328 330
323 323 323 325 327 328 327 326 329 330 330 330 331 332 332 331 330 332 333 333 334 333 332 334 339 340 341 341 339 343 341 335 333 332 332 333 331 330 329 328 328 329 330
319 320 321 324 326 324 324 325 326 327 327 329 330 330 331 331 332 332 332 333 333 333 335 333 338 340 340 340 340 342 339 334 332 332 330 331 327 326 330 328 329 331 332
317 317 320 322 322 323 323 323 324 325 326 327 329 331 331 332 333 331 332 333 334 332 335 334 336 339 340 340 340 340 339 335 332 331 331 331 330 327 329 330 330 332 332
313 314 315 316 320 320 321 322 322 323 323 324 325 328 332 331 333 334 333 332 333 333 334 335 335 339 339 340 339 340 339 336 334 332 330 328 330 330 330 328 330 331 331
311 313 315 317 318 319 320 320 319 320 322 323 325 326 327 332 333 333 333 333 334 334 335 334 336 339 339 340 340 339 339 336 333 332 331 330 329 327 325 326 331 332 332
311 313 313 313 314 316 316 317 318 319 321 323 325 327 329 332 333 334 334 334 334 334 336 336 335 339 340 340 339 338 337 335 332 330 331 328 326 324 324 329 332 332 332
Wind_Speed
3 2 1 6 12 11 12 7 8 9 10 15 18 17 16 17 17 19 20 18 17 20 20 16 16 15 16 14 13 13 13 11 10 11 3 5 4 4 8 8 9 11 13
6 5 6 6 12 12 15 13 7 12 13 16 16 17 17 17 18 18 18 17 17 20 21 21 17 18 16 17 14 14 12 9 18 7 8 5 5 8 9 10 12 13 13
6 8 9 10 11 12 14 16 12 15 15 16 17 19 20 18 18 18 17 17 18 20 20 21 21 19 17 18 15 13 12 11 11 11 12 15 9 10 9 10 12 12 12
5 6 8 11 14 14 17 18 17 18 18 15 14 15 22 21 22 20 20 19 20 20 20 20 18 21 21 18 18 17 16 12 9 8 14 14 11 16 12 10 12 16 11
2 5 7 9 11 15 18 19 19 19 19 18 19 18 24 22 21 18 19 19 20 21 23 23 24 24 22 20 18 18 15 16 11 14 18 11 17 14 7 6 9 11 10
6 6 4 2 4 7 10 13 15 15 16 17 19 20 20 20 20 23 20 22 21 22 23 27 27 24 19 25 23 22 15 16 15 15 19 13 5 5 7 7 10 10 10
3 3 4 4 5 7 8 9 11 12 14 15 17 17 18 18 20 21 22 22 20 22 24 23 23 25 25 23 22 25 23 22 18 13 13 13 11 6 5 6 9 10 13
2 4 5 8 9 11 11 10 11 11 13 15 17 16 17 17 18 19 20 17 16 18 22 22 24 26 24 22 21 19 21 22 24 22 18 15 14 9 5 7 9 10 14
8 6 8 9 11 12 12 12 13 13 14 15 16 15 14 14 14 10 14 14 17 19 19 20 23 24 27 24 21 19 18 21 21 19 18 14 16 13 12 10 13 13 13
9 10 10 12 13 14 14 14 14 14 16 15 16 16 17 15 15 15 13 10 14 18 20 23 22 23 28 27 28 23 19 22 22 17 16 19 20 20 18 16 12 13 12
9 12 13 14 15 17 19 18 16 17 18 18 19 19 19 19 21 22 21 18 15 16 18 21 23 22 25 28 30 29 26 20 21 17 10 10 11 11 10 10 10 11 11
11 13 14 16 18 21 22 21 21 20 22 22 22 22 21 22 24 21 21 13 13 14 19 21 20 26 23 24 30 34 31 24 22 18 18 16 16 15 13 12 11 9 9
14 16 18 20 21 23 22 24 25 26 26 25 23 22 21 20 19 18 19 16 13 18 17 20 23 22 25 20 27 30 30 28 25 19 17 17 19 13 6 7 8 9 10
19 21 22 22 23 24 27 29 28 27 26 24 23 23 22 21 21 17 16 14 13 14 13 12 17 16 11 12 16 20 21 23 26 24 18 16 12 10 7 13 14 10 10
22 24 24 25 25 24 25 26 26 27 26 25 25 25 25 24 22 6 9 10 12 11 15 14 12 11 9 13 12 14 19 20 19 19 16 14 15 11 13 14 13 12 10
23 25 24 25 26 25 26 26 27 28 29 31 32 33 31 31 31 33 36 30 24 19 18 21 17 15 15 15 16 16 16 18 20 18 13 11 17 15 15 15 13 11 9
25 26 23 24 24 25 25 25 25 26 24 28 32 33 34 35 28 24 28 30 25 19 18 19 20 17 17 18 19 20 21 24 21 17 14 17 20 18 16 16 14 12 14
24 21 20 20 21 23 24 23 24 25 25 28 29 27 23 24 26 25 26 24 18 20 22 20 22 20 18 21 23 24 29 25 20 18 20 20 21 18 14 17 16 15 12
22 21 21 21 22 23 24 24 23 24 23 23 25 26 17 13 20 21 21 20 22 23 25 22 25 23 21 21 24 25 23 27 26 24 25 22 19 16 15 15 14 13 13
18 22 23 26 25 25 22 22 20 25 25 24 25 23 17 10 19 24 28 22 23 25 25 26 24 24 21 22 24 26 24 24 28 30 29 26 18 16 16 14 14 13 14
21 22 25 28 28 22 20 22 24 22 24 26 25 24 26 14 18 21 25 24 26 22 24 27 23 25 22 20 27 24 25 26 29 30 31 19 19 14 7 13 14 13 15
23 24 26 26 26 21 22 23 22 23 24 27 27 26 19 17 21 23 25 27 29 28 22 24 25 22 22 22 24 25 25 29 33 33 29 26 28 27 21 15 19 24 20
23 24 24 26 25 24 23 23 23 24 25 26 27 25 26 23 20 22 26 27 30 21 24 21 23 23 20 24 24 29 29 30 33 35 33 34 28 24 26 22 19 16 11
23 23 24 26 25 23 24 22 22 24 25 27 29 28 26 25 24 25 26 27 28 18 20 21 23 23 22 24 25 28 29 28 30 34 35 37 34 29 25 21 18 16 17
23 23 23 23 23 22 22 23 25 26 26 26 26 26 28 29 25 26 25 24 30 17 19 21 25 24 23 23 25 27 30 31 29 32 33 32 30 29 29 31 24 17 17
20 21 21 22 23 23 24 24 25 26 25 25 25 27 27 26 26 26 26 25 22 24 20 25 28 25 28 25 26 25 23 34 34 35 32 29 28 31 34 29 23 20 18
Wind_Direction
172 163 94 164 167 203 239 244 246 251 252 242 236 239 241 242 237 230 236 243 231 235 245 255 236 244 256 255 265 243 230 254 251 291 97 189 140 249 263 259 261 253 266
202 191 196 219 195 203 234 260 261 265 264 258 251 244 240 236 239 233 238 239 235 235 237 240 246 242 241 250 260 233 270 241 260 288 298 299 253 239 245 262 270 271 273
229 236 221 224 236 253 266 272 259 264 267 263 256 251 247 240 235 231 230 238 239 240 242 242 239 247 247 256 264 268 246 260 242 252 266 256 245 225 227 260 256 260 269
258 257 259 248 262 263 267 269 267 263 263 272 266 273 261 241 236 227 218 224 229 235 231 243 238 243 248 244 250 253 252 255 246 249 262 261 267 251 209 254 241 232 257
302 283 284 270 263 269 266 274 270 260 260 265 255 249 255 247 243 239 236 226 225 228 230 232 239 240 248 240 236 243 240 243 231 239 258 279 251 255 236 313 311 304 277
54 48 38 331 290 285 290 285 267 261 255 258 256 250 247 249 254 249 234 234 233 239 238 235 238 243 245 239 239 237 236 225 220 225 235 240 294 276 287 295 289 300 299
60 32 15 1 343 335 326 323 314 298 285 274 266 266 270 270 275 274 256 249 253 252 250 246 244 242 239 232 236 235 233 227 225 230 246 270 298 298 286 299 280 287 279
303 324 334 332 328 325 321 317 316 310 303 299 297 297 293 287 290 286 275 271 269 283 280 271 261 254 248 233 227 225 222 224 228 230 234 244 257 259 235 252 266 275 283
280 286 301 305 308 312 314 318 316 310 307 303 299 299 298 296 295 310 304 281 275 276 276 274 265 268 258 245 231 224 223 226 223 218 221 231 226 234 235 252 260 259 272
280 294 293 289 291 294 298 301 302 303 297 298 304 301 294 283 283 286 297 294 280 274 275 275 271 264 258 251 241 233 234 231 228 215 222 231 242 255 257 243 243 253 265
306 296 295 289 289 283 277 277 279 284 288 291 293 291 285 276 267 267 272 284 270 277 287 289 273 283 261 259 239 232 234 236 224 218 202 217 218 222 234 227 225 235 260
289 289 288 287 287 292 295 293 290 286 280 278 275 275 280 268 258 245 253 258 269 270 277 281 282 274 286 266 247 236 234 234 221 215 208 230 235 227 236 213 210 223 238
294 291 290 290 287 286 281 278 279 276 271 275 279 284 287 286 285 243 239 243 256 265 269 270 275 278 274 277 250 242 232 225 211 208 208 231 232 234 211 165 193 219 235
294 293 291 288 284 277 277 278 277 278 279 280 282 285 287 287 285 278 217 225 250 264 282 270 267 278 264 279 263 228 219 215 207 204 202 241 267 214 207 230 218 201 220
296 295 296 291 283 282 271 269 271 273 275 282 287 291 294 290 284 292 312 277 277 284 288 274 276 257 233 236 234 224 209 210 198 192 204 209 258 221 229 221 221 180 217
296 294 295 300 293 290 287 284 277 264 262 264 269 269 271 271 269 274 280 280 280 280 274 264 256 250 237 207 202 208 202 194 193 189 205 219 245 229 227 217 217 196 203
290 292 298 304 301 299 295 295 299 294 292 274 267 264 263 261 256 261 263 265 264 255 249 255 255 244 235 214 204 198 193 196 202 193 215 228 239 234 216 214 212 200 196
293 289 284 288 292 295 300 299 287 285 289 290 289 295 275 258 245 241 251 253 251 250 245 243 247 243 231 217 205 200 196 192 200 208 208 233 241 227 206 221 205 205 202
284 291 294 294 293 292 293 290 290 290 288 278 286 290 292 277 240 236 244 238 244 245 247 236 241 239 227 225 214 205 196 193 199 204 210 230 232 219 207 216 203 205 184
301 303 300 293 287 289 293 284 279 286 288 290 293 281 272 233 223 232 242 241 246 248 250 247 236 230 230 218 223 205 198 184 186 192 200 219 224 214 206 209 197 187 197
302 296 294 285 285 286 285 295 296 295 292 290 284 281 287 251 238 235 246 239 245 248 244 248 240 240 213 219 221 208 191 177 181 187 196 207 185 199 255 239 207 196 202
297 294 291 292 284 293 286 289 285 283 283 285 287 287 286 260 262 262 261 260 243 246 242 241 245 242 221 209 216 208 186 178 177 180 188 202 196 197 207 208 204 214 199
297 295 293 292 294 291 288 287 288 290 290 288 287 291 283 278 265 261 265 262 272 251 224 233 233 238 231 217 208 212 200 189 184 183 185 188 196 200 206 215 244 192 198
301 296 292 290 289 292 291 291 290 284 286 285 286 284 283 274 269 264 255 263 261 274 238 231 231 228 230 218 217 208 204 195 187 185 187 185 190 202 201 198 234 193 185
293 288 286 286 290 290 291 298 294 288 284 281 278 282 281 279 272 263 263 263 260 252 247 235 243 230 223 222 220 214 199 193 186 189 182 185 190 194 193 195 234 214 180
304 303 305 304 301 299 296 290 289 288 284 283 282 281 278 277 275 268 261 261 253 252 253 229 243 218 216 212 214 218 191 192 192 188 185 189 185 192 195 214 215 201 182